Meteo Giornale » Osservazioni meteo Egitto » Cairo

ore: 23:30 - Osservazioni Meteo Cairo
Lat. 30° 8' N Lon. 31° 24' E Alt. 64 metri s.l.m.

sereno Africa/Cairo

23 °C

Sereno

Temp. 24 Ore

21 °C

31 °C

Nord-Est

13 Km/h

Dew point 18 °C

Umidità 73 %

Visibilità  10 Km

Il sole sorge alle ore 05:57

Il sole tramonta alle ore 17:21

Data e Ora Cielo e Fenomeni T °C DP °C Um. % Pres. hPa Vis. km Vento km/h
Ieri h: 23:30 sereno Sereno 23 18 73 1016 10 NE 13
Ieri h: 23:00 sereno Sereno 23 18 73 1016 10 NE 13
Ieri h: 22:30 sereno Sereno 24 17 64 1016 10 NE 18.5
Ieri h: 22:00 sereno Sereno 24 17 64 1016 10 NE 18.5
Ieri h: 21:30 sereno Sereno 24 17 64 1016 10 NE 18.5
Ieri h: 21:00 sereno Sereno 25 17 61 1016 10 N/NE 25.9
Ieri h: 20:30 sereno Sereno 25 16 57 1016 10 N/NE 25.9
Ieri h: 20:00 sereno Sereno 26 16 54 1016 10 N/NE 29.6
Ieri h: 19:30 sereno Sereno 26 15 50 1015 10 N/NE 33.3
Ieri h: 19:00 sereno Sereno 26 15 50 1015 10 N/NE 29.6
Ieri h: 18:30 sereno Sereno 27 16 50 1015 10 N/NE 29.6
Ieri h: 18:00 sereno Sereno 28 16 48 1014 10 N/NE 31.5
Ieri h: 17:30 sereno Sereno 28 16 48 1014 10 N/NE 29.6
Ieri h: 17:00 sereno Sereno 30 16 42 1014 10 N 25.9
Ieri h: 16:30 sereno Sereno 30 14 37 1013 10 N 27.8
Ieri h: 16:00 sereno Sereno 31 14 35 1013 10 N 25.9
Ieri h: 15:30 sereno Sereno 31 14 35 1013 10 N/NE 25.9
Ieri h: 15:00 sereno Sereno 31 14 35 1013 10 N/NE 24
Ieri h: 14:30 sereno Sereno 31 15 37 1014 10 NE 22.2
Ieri h: 14:00 sereno Sereno 31 14 35 1014 10 N/NE 24
Ieri h: 13:30 sereno Sereno 31 13 33 1014 10 N/NE 27.8
Ieri h: 13:00 sereno Sereno 31 14 35 1014 10 N/NE 22.2
Ieri h: 12:30 sereno Sereno 30 14 37 1015 10 N/NE 25.9
Ieri h: 12:00 sereno Sereno 29 16 45 1015 10 N/NE 25.9
Ieri h: 11:30 sereno Sereno 29 15 42 1016 10 NE 18.5
Ieri h: 11:00 sereno Sereno 28 16 48 1016 10 NE 25.9
Ieri h: 10:30 sereno Sereno 28 16 48 1016 10 NE 22.2
Ieri h: 10:00 sereno Sereno 27 17 54 1017 10 E/NE 18.5
Ieri h: 09:30 sereno Sereno 26 19 65 1017 10 E/NE 18.5
Ieri h: 09:00 sereno Sereno 25 19 69 1017 10 NE 14.8
Ieri h: 08:30 sereno Sereno 24 19 73 1017 6 NE 14.8
Ieri h: 08:00 sereno Sereno 23 20 83 1017 6 E/NE 16.7
Ieri h: 07:30 sereno Sereno 22 19 83 1017 6 N/NE 9.3
Ieri h: 07:00 sereno Sereno 21 19 88 1017 6 N 5.5
Ieri h: 06:30 sereno Sereno 21 19 88 1017 6 N 5.5
Ieri h: 06:00 sereno Sereno 21 18 82 1016 6 N 5.5
Ieri h: 05:30 sereno Sereno 21 18 82 1016 6 E/NE 11.1
Ieri h: 05:00 sereno Sereno 21 18 82 1016 6 N 9.3
Ieri h: 04:30 sereno Sereno 21 18 82 1016 6 NE 7.4
Ieri h: 04:00 sereno Sereno 21 18 82 1016 6 NE 7.4
Ieri h: 03:30 sereno Sereno 21 18 82 1016 6 NE 7.4
Ieri h: 03:00 sereno Sereno 22 18 78 1016 6 NE 7.4
Ieri h: 02:30 sereno Sereno 22 18 78 1016 6 NE 11.1
Ieri h: 02:00 sereno Sereno 22 17 73 1017 10 NE 11.1
Ieri h: 01:30 sereno Sereno 22 17 73 1017 10 E/NE 13
Ieri h: 01:00 sereno Sereno 22 17 73 1017 10 E/NE 13